TimeMST,TemperatureF,Dew PointF,Humidity,Sea Level PressureIn,VisibilityMPH,Wind Direction,Wind SpeedMPH,Gust SpeedMPH,PrecipitationIn,Events,Conditions,WindDirDegrees,DateUTC
12:54 AM,30.0,17.1,59,29.97,10.0,Calm,Calm,-,N/A,,Clear,0,2013-10-08 07:54:00
1:54 AM,28.0,17.1,63,29.95,10.0,Calm,Calm,-,N/A,,Clear,0,2013-10-08 08:54:00
2:54 AM,28.9,17.1,61,29.93,10.0,Calm,Calm,-,N/A,,Clear,0,2013-10-08 09:54:00
3:54 AM,28.9,17.1,61,29.94,10.0,NE,6.9,-,N/A,,Clear,50,2013-10-08 10:54:00
4:54 AM,28.9,18.0,64,29.95,10.0,Calm,Calm,-,N/A,,Clear,0,2013-10-08 11:54:00
5:54 AM,27.0,17.1,66,29.98,10.0,Calm,Calm,-,N/A,,Clear,0,2013-10-08 12:54:00
6:54 AM,27.0,17.1,66,30.02,10.0,NE,3.5,-,N/A,,Clear,50,2013-10-08 13:54:00
7:54 AM,43.0,21.9,43,29.97,10.0,Calm,Calm,-,N/A,,Clear,0,2013-10-08 14:54:00
8:54 AM,57.9,19.0,22,29.94,10.0,SW,13.8,-,N/A,,Clear,220,2013-10-08 15:54:00
9:54 AM,61.0,19.9,21,29.92,10.0,SW,16.1,-,N/A,,Clear,220,2013-10-08 16:54:00
10:54 AM,63.0,14.0,15,29.92,10.0,SW,23.0,29.9,N/A,,Clear,220,2013-10-08 17:54:00
11:54 AM,64.9,12.9,13,29.90,10.0,SW,17.3,29.9,N/A,,Clear,220,2013-10-08 18:54:00
12:54 PM,66.0,15.1,14,29.88,10.0,SW,19.6,32.2,N/A,,Clear,230,2013-10-08 19:54:00
1:54 PM,66.9,14.0,13,29.86,10.0,SSW,17.3,27.6,N/A,,Clear,210,2013-10-08 20:54:00
2:54 PM,66.9,17.1,15,29.84,10.0,SW,17.3,28.8,N/A,,Clear,230,2013-10-08 21:54:00
3:54 PM,64.0,18.0,17,29.83,10.0,SW,18.4,29.9,N/A,,Clear,230,2013-10-08 22:54:00
4:54 PM,64.0,17.1,16,29.83,10.0,SSW,15.0,23.0,N/A,,Clear,210,2013-10-08 23:54:00
5:54 PM,59.0,17.1,20,29.86,10.0,SSW,13.8,-,N/A,,Clear,210,2013-10-09 00:54:00
6:54 PM,54.0,19.0,25,29.87,10.0,SW,6.9,-,N/A,,Clear,220,2013-10-09 01:54:00
7:54 PM,50.0,21.0,32,29.82,10.0,SW,5.8,-,N/A,,Clear,220,2013-10-09 02:54:00
8:54 PM,45.0,21.0,39,29.79,10.0,SW,4.6,-,N/A,,Clear,220,2013-10-09 03:54:00
9:54 PM,48.9,21.9,35,29.75,10.0,South,8.1,-,N/A,,Clear,170,2013-10-09 04:54:00
10:54 PM,41.0,21.9,47,29.77,10.0,SE,3.5,-,N/A,,Clear,140,2013-10-09 05:54:00
11:54 PM,36.0,21.0,55,29.76,10.0,Calm,Calm,-,N/A,,Clear,0,2013-10-09 06:54:00